Погода в Торяном

Россия / Волгоградская область     51°02′07″N   43°31′45″E
темп.,
°C
ветер,
м/с
пор.,
м/с
влажн.,
%
обл.,
%
осадки,
мм/ч
давл.,
гПа
погр.,
м
22 мая, вс
вс2200:00+9ю3765100 0.0 1006243
03:00+9вюв3786100 0.0 1003234
06:00+8вюв6996100 2.4 999441
09:00+8в51096100 5.4 997497
12:00+9в6991100 1.2 997556
15:00+9в6894100 1.9 996528
18:00+7всв6994100 1.3 997509
21:00+7всв4993100 1.4 998438
23 мая, пн
пн2300:00+6всв3796100 0.0 997222
03:00+6ссв479696 2.8 998301
06:00+7с4693100 0.2 999414
09:00+6с498687 0.4 1002470
12:00+11ссз565793 0.0 10031543
15:00+13сз664899 0.0 10042024
18:00+10ссз676173 0.0 10051191
21:00+7ссз37675 0.0 1007333
24 мая, вт
вт2400:00+3сз33793 0.0 100844
03:00+3з35810 0.0 100872
06:00+5зюз48775 0.0 1009230
09:00+12з57601 0.0 10091156
12:00+14з67455 0.0 10082045
15:00+16з684198 0.0 10072466
18:00+13зсз6959100 0.1 1008542
21:00+9з357631 0.1 101066
25 мая, ср
ср2500:00+6с349068 0.0 101169
03:00+5сз22865 0.0 101222
06:00+7ссз358289 0.0 1013274
09:00+10ссз455829 0.0 10141353
12:00+11ссз565299 0.1 10151812
15:00+10сз565687 0.1 10161394
18:00+9сз3564100 0.0 1017485
21:00+6сз33767 0.1 101731
26 мая, чт
чт2600:00+5зсз1274100 0.0 101812
03:00+6зюз227754 0.0 101826
06:00+7з34795 0.0 1017187
09:00+12зюз456413 0.0 1016621
12:00+16юз796552 0.0 10151160
15:00+19юз7115319 0.6 10122102
18:00+17з6116796 0.3 1011530
21:00+13юз61576100 0.5 1010542